Home > Weather > Thabazimbi > Past weeks

Flag for South Africa Past Weather in Thabazimbi, South Africa — Yesterday and Last 2 Weeks

Now
63 °F

Clear.


Feels Like: 63 °F
Forecast: 39 / 75 °F
Wind: 6 mph from East

Location: Seretse Khama International Airport

Current Time: May 30, 2016 at 8:36:16 PM

Latest Report: May 30, 2016 at 7:00 PM


Visibility: 10 mi

Pressure: 30.27 "Hg (27.01 "Hg at 969m altitude)

Humidity: 34%

Dew Point: 34 °F

Location of ThabazimbiLocation

Past Weather in Thabazimbi — Graph

°F

Thabazimbi Temperature Yesterday

Maximum temperature yesterday: 73 °F (at 3:00 PM)
Minimum temperature yesterday: 43 °F (at 7:00 AM)
Average temperature yesterday: 58 °F

High & Low Weather Summary for the Past Weeks

 TemperatureHumidityPressure
High77 °F (May 20, 2:00 PM)100% (May 16, 12:00 AM)30.51 "Hg (May 16, 12:00 AM)
Low41 °F (May 30, 5:00 AM)23% (May 29, 4:00 PM)30.04 "Hg (May 18, 4:00 AM)
Average61 °F60%30.34 "Hg
* Reported May 15 7:00 PM — May 30 7:00 PM, Thabazimbi, Weather by CustomWeather, © 2016

Note: Actual official high and low records may vary slightly from our data, if they occured in-between our weather recording intervals... More about our weather records

Advertising

Thabazimbi Weather History for the Previous 24 Hours

Scroll right to see more
 ConditionsComfort  
Time TempWeatherWind HumidityBarometerVisibility
7:00 PM
Mon, May 30
63 °FClear.6 mph34%30.27 "Hg10 mi
6:00 PM64 °FClear.5 mph34%30.24 "Hg10 mi
5:00 PM70 °FPassing clouds.3 mph27%30.24 "HgN/A
4:00 PM72 °FPassing clouds.6 mph25%30.24 "HgN/A
3:00 PM72 °FSunny.6 mph25%30.24 "Hg10 mi
2:00 PM72 °FSunny.2 mph29%30.24 "Hg10 mi
1:00 PM70 °FSunny.2 mph31%30.27 "Hg10 mi
12:00 PM68 °FSunny.2 mph33%30.33 "Hg10 mi
11:00 AM64 °FPassing clouds.3 mph37%30.36 "HgN/A
10:00 AM61 °FSunny.3 mph45%30.36 "Hg10 mi
9:00 AM55 °FPassing clouds.5 mph55%30.36 "HgN/A
8:00 AM48 °FSunny.No wind71%30.33 "Hg10 mi
7:00 AM43 °FSunny.3 mph81%30.33 "Hg10 mi
6:00 AM43 °FPassing clouds.3 mph81%30.30 "HgN/A
5:00 AM41 °FPassing clouds.3 mph87%30.27 "HgN/A
2:00 AM45 °FClear.2 mph81%30.27 "Hg10 mi
1:00 AM48 °FClear.2 mph71%30.27 "Hg10 mi
12:00 AM50 °FClear.2 mph67%30.30 "Hg10 mi
11:00 PM
Sun, May 29
50 °FPassing clouds.3 mph67%30.30 "HgN/A
10:00 PM57 °FClear.2 mph51%30.30 "Hg10 mi
9:00 PM55 °FPassing clouds.3 mph51%30.30 "HgN/A
8:00 PM57 °FPassing clouds.6 mph48%30.30 "HgN/A
Weather by CustomWeather, © 2016

See weather overviewHow to use our weather pages